Zagreb — 9AA5910 — position and weather

sailwx.info

Track history (hours):
 
Tides and Currents Weather Stations Pressure Air Temp Water Temp Dewpoint Dewpoint Depression Visibility Wind Speed Wind Dir Waves Ship Positions

Zagreb

Last reported at 2014-Nov-01 01:24 UTC. Time now 2014-Nov-01 04:01 UTC.
Position N 59°58' E 027°02'.

Length 229 m; draft 8 m.

Type: Cargo ship. MMSI: 238249000.

Date/timePositionNaut miles runAvg speedWind from/ knotsBaromVisibWave heightAir tempDewpointWater temp
2014-Nov-01 01:24N 59°58' E 027°02'1313.4
2014-Nov-01 00:25N 59°59' E 026°36'5613.4
2014-Oct-31 20:14N 59°46' E 024°48'913.6
2014-Oct-31 19:33N 59°44' E 024°30'1413.6
2014-Oct-31 18:33N 59°40' E 024°04'1413.8
2014-Oct-31 17:30N 59°35' E 023°38'22713.4
2014-Oct-31 00:33N 56°53' E 018°37'12613.5
2014-Oct-30 15:15N 55°40' E 015°32'1013.8
2014-Oct-30 14:33N 55°35' E 015°17'1413.7
2014-Oct-30 13:33N 55°29' E 014°56'1413.8
2014-Oct-30 12:33N 55°22' E 014°35'1413.9
2014-Oct-30 11:34N 55°11' E 014°19'3313.6
2014-Oct-30 09:09N 55°11' E 013°22'813.7
2014-Oct-30 08:33N 55°11' E 013°08'1414.3
2014-Oct-30 07:33N 55°16' E 012°45'1111.0
2014-Oct-30 06:33N 55°27' E 012°40'1212.2
2014-Oct-30 05:34N 55°39' E 012°41'1313.3
2014-Oct-30 04:33N 55°53' E 012°40'1313.1
2014-Oct-30 03:33N 56°05' E 012°34'1414.2
2014-Oct-30 02:33N 56°14' E 012°14'1813.2
2014-Oct-30 01:10N 56°30' E 011°58'914.1
2014-Oct-30 00:33N 56°38' E 011°54'1414.1
2014-Oct-29 23:33N 56°52' E 011°47'1513.9
2014-Oct-29 22:28N 57°06' E 011°38'1213.7
2014-Oct-29 21:33N 57°18' E 011°31'1413.9
2014-Oct-29 20:33N 57°30' E 011°19'1414.1
2014-Oct-29 19:33N 57°40' E 010°59'1413.8
2014-Oct-29 18:33N 57°47' E 010°38'1514.5
2014-Oct-29 17:33N 57°46' E 010°11'1514.0
2014-Oct-29 16:30N 57°45' E 009°43'1213.2
2014-Oct-29 15:33N 57°41' E 009°21'1413.7
2014-Oct-29 14:32N 57°33' E 008°59'1413.9
2014-Oct-29 13:33N 57°24' E 008°41'1413.9
2014-Oct-29 12:33N 57°14' E 008°22'1413.8
2014-Oct-29 11:33N 57°04' E 008°05'1413.7
2014-Oct-29 10:33N 56°55' E 007°47'1313.1
2014-Oct-29 09:32N 56°44' E 007°32'1312.9
2014-Oct-29 08:33N 56°32' E 007°24'1313.1
2014-Oct-29 07:32N 56°20' E 007°15'1312.9
2014-Oct-29 06:33N 56°08' E 007°06'1312.6
2014-Oct-29 05:33N 55°56' E 007°00'1312.7
2014-Oct-29 04:34N 55°43' E 006°60'1212.1
2014-Oct-29 03:33N 55°33' E 007°11'1212.1
2014-Oct-29 02:34N 55°25' E 007°28'1212.1
2014-Oct-29 01:33N 55°21' E 007°47'1111.3
2014-Oct-29 00:34N 55°24' E 008°07'9 9.5
2014-Oct-28 23:34N 55°29' E 008°21'4 4.0
2014-Oct-28 22:33N 55°27' E 008°27'0 0.3
2014-Oct-28 21:29N 55°27' E 008°27'0 0.0
2014-Oct-28 20:32N 55°27' E 008°27'0 0.0
2014-Oct-28 19:32N 55°27' E 008°27'0 0.0
2014-Oct-28 18:26N 55°27' E 008°27'0 0.0
2014-Oct-28 17:29N 55°27' E 008°27'0 0.0
2014-Oct-28 16:32N 55°27' E 008°27'0 0.0
2014-Oct-28 15:32N 55°27' E 008°27'0 0.0
2014-Oct-28 14:26N 55°27' E 008°27'0 0.0
2014-Oct-28 13:29N 55°27' E 008°27'0 0.0
2014-Oct-28 12:32N 55°27' E 008°27'0 0.0
2014-Oct-28 11:32N 55°27' E 008°27'0 0.0
2014-Oct-28 10:32N 55°27' E 008°27'0 0.0
2014-Oct-28 09:32N 55°27' E 008°27'0 0.0
2014-Oct-28 08:32N 55°27' E 008°27'0 0.0
2014-Oct-28 07:32N 55°27' E 008°27'0 0.0
2014-Oct-28 06:32N 55°27' E 008°27'0 0.0
2014-Oct-28 05:32N 55°27' E 008°27'0 0.0
2014-Oct-28 04:20N 55°27' E 008°27'0 0.0
2014-Oct-28 03:29N 55°27' E 008°27'0 0.0
2014-Oct-28 02:32N 55°27' E 008°27'0 0.0
2014-Oct-28 01:32N 55°27' E 008°27'0 0.0
2014-Oct-28 00:29N 55°27' E 008°27'0 0.0
2014-Oct-27 23:32N 55°27' E 008°27'0 0.0
2014-Oct-27 22:32N 55°27' E 008°27'0 0.0
2014-Oct-27 21:32N 55°27' E 008°27'0 0.0
2014-Oct-27 20:32N 55°27' E 008°27'0 0.0
2014-Oct-27 19:29N 55°27' E 008°27'0 0.0
2014-Oct-27 18:32N 55°27' E 008°27'0 0.0
2014-Oct-27 17:32N 55°27' E 008°27'0 0.0
2014-Oct-27 16:32N 55°27' E 008°27'0 0.0
2014-Oct-27 15:26N 55°27' E 008°27'0 0.0
2014-Oct-27 14:26N 55°27' E 008°27'0 0.0
2014-Oct-27 13:29N 55°27' E 008°27'0 0.0
2014-Oct-27 12:29N 55°27' E 008°27'0 0.0
2014-Oct-27 11:29N 55°27' E 008°27'0 0.0
2014-Oct-27 10:32N 55°27' E 008°27'0 0.0
2014-Oct-27 09:22N 55°27' E 008°27'0 0.0
2014-Oct-27 08:32N 55°27' E 008°27'0 0.0
2014-Oct-27 07:32N 55°27' E 008°27'0 0.0
2014-Oct-27 06:28N 55°27' E 008°27'0 0.0
2014-Oct-27 05:31N 55°27' E 008°27'0 0.0
2014-Oct-27 04:28N 55°27' E 008°27'0 0.0
2014-Oct-27 03:25N 55°27' E 008°27'0 0.0
2014-Oct-27 02:32N 55°27' E 008°27'0 0.0
2014-Oct-27 01:29N 55°27' E 008°27'0 0.0
2014-Oct-27 00:31N 55°27' E 008°27'0 0.0
2014-Oct-26 23:31N 55°27' E 008°27'0 0.0
2014-Oct-26 22:28N 55°27' E 008°27'0 0.0
2014-Oct-26 21:25N 55°27' E 008°27'0 0.0
2014-Oct-26 20:31N 55°27' E 008°27'0 0.0
2014-Oct-26 19:31N 55°27' E 008°27'0 0.0
2014-Oct-26 18:25N 55°27' E 008°27'0 0.0
2014-Oct-26 17:28N 55°27' E 008°27'0 0.0
2014-Oct-26 16:28N 55°27' E 008°27'0 0.0
2014-Oct-26 15:34N 55°27' E 008°27'6 5.6
2014-Oct-26 14:33N 55°27' E 008°17'7 6.6
2014-Oct-26 13:34N 55°24' E 008°06'1 0.8
2014-Oct-26 12:32N 55°24' E 008°08'0 0.0
2014-Oct-26 11:31N 55°24' E 008°08'0 0.0
2014-Oct-26 10:31N 55°24' E 008°08'0 0.0
2014-Oct-26 09:31N 55°24' E 008°08'0 0.0
2014-Oct-26 08:31N 55°24' E 008°08'0 0.0
2014-Oct-26 07:31N 55°24' E 008°08'0 0.0
2014-Oct-26 06:31N 55°24' E 008°08'0 0.0
2014-Oct-26 05:32N 55°24' E 008°08'0 0.1
2014-Oct-26 04:31N 55°24' E 008°08'4 4.4
2014-Oct-26 03:33N 55°22' E 008°02'1212.0
2014-Oct-26 02:33N 55°22' E 007°41'1312.7
2014-Oct-26 01:33N 55°27' E 007°20'1312.6
2014-Oct-26 00:33N 55°37' E 007°05'1211.7
2014-Oct-25 23:31N 55°48' E 007°00'2711.8
2014-Oct-25 21:12N 56°15' E 007°11'811.7
2014-Oct-25 20:32N 56°22' E 007°16'1111.6
2014-Oct-25 19:33N 56°33' E 007°24'11611.0
2014-Oct-25 09:03N 57°50' E 010°03'612.5
2014-Oct-25 08:33N 57°50' E 010°15'1212.2
2014-Oct-25 07:33N 57°50' E 010°37'1211.7
2014-Oct-25 06:33N 57°44' E 010°56'1312.5
2014-Oct-25 05:33N 57°35' E 011°13'1212.3
2014-Oct-25 04:33N 57°26' E 011°28'1313.1
2014-Oct-25 03:32N 57°13' E 011°36'1313.2
2014-Oct-25 02:31N 57°01' E 011°44'1313.2
2014-Oct-25 01:33N 56°49' E 011°53'1211.4
2014-Oct-25 00:32N 56°38' E 011°47'  
2014-Oct-22 19:33N 54°31' E 011°28'1312.6
2014-Oct-22 18:33N 54°27' E 011°48'1212.3
2014-Oct-22 17:34N 54°27' E 012°09'5911.8
2014-Oct-22 12:33N 54°58' E 013°36'1313.0
2014-Oct-22 11:33N 55°03' E 013°58'1312.6
2014-Oct-22 10:33N 55°11' E 014°14'1313.4
2014-Oct-22 09:33N 55°22' E 014°29'1312.9
2014-Oct-22 08:33N 55°29' E 014°47'1312.8
2014-Oct-22 07:33N 55°35' E 015°07'  
Track history (hours):
 
Tides and Currents Weather Stations Pressure Air Temp Water Temp Dewpoint Dewpoint Depression Visibility Wind Speed Wind Dir Waves Ship Positions

Zagreb

Last reported at 2014-Nov-01 01:24 UTC. Time now 2014-Nov-01 04:01 UTC.
Position N 59°58' E 027°02'.

Length 229 m; draft 8 m.

Type: Cargo ship. MMSI: 238249000.

Date/timePositionNaut miles runAvg speedWind from/ knotsBaromVisibWave heightAir tempDewpointWater temp
2014-Nov-01 01:24N 59°58' E 027°02'1313.4
2014-Nov-01 00:25N 59°59' E 026°36'5613.4
2014-Oct-31 20:14N 59°46' E 024°48'913.6
2014-Oct-31 19:33N 59°44' E 024°30'1413.6
2014-Oct-31 18:33N 59°40' E 024°04'1413.8
2014-Oct-31 17:30N 59°35' E 023°38'22713.4
2014-Oct-31 00:33N 56°53' E 018°37'12613.5
2014-Oct-30 15:15N 55°40' E 015°32'1013.8
2014-Oct-30 14:33N 55°35' E 015°17'1413.7
2014-Oct-30 13:33N 55°29' E 014°56'1413.8
2014-Oct-30 12:33N 55°22' E 014°35'1413.9
2014-Oct-30 11:34N 55°11' E 014°19'3313.6
2014-Oct-30 09:09N 55°11' E 013°22'813.7
2014-Oct-30 08:33N 55°11' E 013°08'1414.3
2014-Oct-30 07:33N 55°16' E 012°45'1111.0
2014-Oct-30 06:33N 55°27' E 012°40'1212.2
2014-Oct-30 05:34N 55°39' E 012°41'1313.3
2014-Oct-30 04:33N 55°53' E 012°40'1313.1
2014-Oct-30 03:33N 56°05' E 012°34'1414.2
2014-Oct-30 02:33N 56°14' E 012°14'1813.2
2014-Oct-30 01:10N 56°30' E 011°58'914.1
2014-Oct-30 00:33N 56°38' E 011°54'1414.1
2014-Oct-29 23:33N 56°52' E 011°47'1513.9
2014-Oct-29 22:28N 57°06' E 011°38'1213.7
2014-Oct-29 21:33N 57°18' E 011°31'1413.9
2014-Oct-29 20:33N 57°30' E 011°19'1414.1
2014-Oct-29 19:33N 57°40' E 010°59'1413.8
2014-Oct-29 18:33N 57°47' E 010°38'1514.5
2014-Oct-29 17:33N 57°46' E 010°11'1514.0
2014-Oct-29 16:30N 57°45' E 009°43'1213.2
2014-Oct-29 15:33N 57°41' E 009°21'1413.7
2014-Oct-29 14:32N 57°33' E 008°59'1413.9
2014-Oct-29 13:33N 57°24' E 008°41'1413.9
2014-Oct-29 12:33N 57°14' E 008°22'1413.8
2014-Oct-29 11:33N 57°04' E 008°05'1413.7
2014-Oct-29 10:33N 56°55' E 007°47'1313.1
2014-Oct-29 09:32N 56°44' E 007°32'1312.9
2014-Oct-29 08:33N 56°32' E 007°24'1313.1
2014-Oct-29 07:32N 56°20' E 007°15'1312.9
2014-Oct-29 06:33N 56°08' E 007°06'1312.6
2014-Oct-29 05:33N 55°56' E 007°00'1312.7
2014-Oct-29 04:34N 55°43' E 006°60'1212.1
2014-Oct-29 03:33N 55°33' E 007°11'1212.1
2014-Oct-29 02:34N 55°25' E 007°28'1212.1
2014-Oct-29 01:33N 55°21' E 007°47'1111.3
2014-Oct-29 00:34N 55°24' E 008°07'9 9.5
2014-Oct-28 23:34N 55°29' E 008°21'4 4.0
2014-Oct-28 22:33N 55°27' E 008°27'0 0.3
2014-Oct-28 21:29N 55°27' E 008°27'0 0.0
2014-Oct-28 20:32N 55°27' E 008°27'0 0.0
2014-Oct-28 19:32N 55°27' E 008°27'0 0.0
2014-Oct-28 18:26N 55°27' E 008°27'0 0.0
2014-Oct-28 17:29N 55°27' E 008°27'0 0.0
2014-Oct-28 16:32N 55°27' E 008°27'0 0.0
2014-Oct-28 15:32N 55°27' E 008°27'0 0.0
2014-Oct-28 14:26N 55°27' E 008°27'0 0.0
2014-Oct-28 13:29N 55°27' E 008°27'0 0.0
2014-Oct-28 12:32N 55°27' E 008°27'0 0.0
2014-Oct-28 11:32N 55°27' E 008°27'0 0.0
2014-Oct-28 10:32N 55°27' E 008°27'0 0.0
2014-Oct-28 09:32N 55°27' E 008°27'0 0.0
2014-Oct-28 08:32N 55°27' E 008°27'0 0.0
2014-Oct-28 07:32N 55°27' E 008°27'0 0.0
2014-Oct-28 06:32N 55°27' E 008°27'0 0.0
2014-Oct-28 05:32N 55°27' E 008°27'0 0.0
2014-Oct-28 04:20N 55°27' E 008°27'0 0.0
2014-Oct-28 03:29N 55°27' E 008°27'0 0.0
2014-Oct-28 02:32N 55°27' E 008°27'0 0.0
2014-Oct-28 01:32N 55°27' E 008°27'0 0.0
2014-Oct-28 00:29N 55°27' E 008°27'0 0.0
2014-Oct-27 23:32N 55°27' E 008°27'0 0.0
2014-Oct-27 22:32N 55°27' E 008°27'0 0.0
2014-Oct-27 21:32N 55°27' E 008°27'0 0.0
2014-Oct-27 20:32N 55°27' E 008°27'0 0.0
2014-Oct-27 19:29N 55°27' E 008°27'0 0.0
2014-Oct-27 18:32N 55°27' E 008°27'0 0.0
2014-Oct-27 17:32N 55°27' E 008°27'0 0.0
2014-Oct-27 16:32N 55°27' E 008°27'0 0.0
2014-Oct-27 15:26N 55°27' E 008°27'0 0.0
2014-Oct-27 14:26N 55°27' E 008°27'0 0.0
2014-Oct-27 13:29N 55°27' E 008°27'0 0.0
2014-Oct-27 12:29N 55°27' E 008°27'0 0.0
2014-Oct-27 11:29N 55°27' E 008°27'0 0.0
2014-Oct-27 10:32N 55°27' E 008°27'0 0.0
2014-Oct-27 09:22N 55°27' E 008°27'0 0.0
2014-Oct-27 08:32N 55°27' E 008°27'0 0.0
2014-Oct-27 07:32N 55°27' E 008°27'0 0.0
2014-Oct-27 06:28N 55°27' E 008°27'0 0.0
2014-Oct-27 05:31N 55°27' E 008°27'0 0.0
2014-Oct-27 04:28N 55°27' E 008°27'0 0.0
2014-Oct-27 03:25N 55°27' E 008°27'0 0.0
2014-Oct-27 02:32N 55°27' E 008°27'0 0.0
2014-Oct-27 01:29N 55°27' E 008°27'0 0.0
2014-Oct-27 00:31N 55°27' E 008°27'0 0.0
2014-Oct-26 23:31N 55°27' E 008°27'0 0.0
2014-Oct-26 22:28N 55°27' E 008°27'0 0.0
2014-Oct-26 21:25N 55°27' E 008°27'0 0.0
2014-Oct-26 20:31N 55°27' E 008°27'0 0.0
2014-Oct-26 19:31N 55°27' E 008°27'0 0.0
2014-Oct-26 18:25N 55°27' E 008°27'0 0.0
2014-Oct-26 17:28N 55°27' E 008°27'0 0.0
2014-Oct-26 16:28N 55°27' E 008°27'0 0.0
2014-Oct-26 15:34N 55°27' E 008°27'6 5.6
2014-Oct-26 14:33N 55°27' E 008°17'7 6.6
2014-Oct-26 13:34N 55°24' E 008°06'1 0.8
2014-Oct-26 12:32N 55°24' E 008°08'0 0.0
2014-Oct-26 11:31N 55°24' E 008°08'0 0.0
2014-Oct-26 10:31N 55°24' E 008°08'0 0.0
2014-Oct-26 09:31N 55°24' E 008°08'0 0.0
2014-Oct-26 08:31N 55°24' E 008°08'0 0.0
2014-Oct-26 07:31N 55°24' E 008°08'0 0.0
2014-Oct-26 06:31N 55°24' E 008°08'0 0.0
2014-Oct-26 05:32N 55°24' E 008°08'0 0.1
2014-Oct-26 04:31N 55°24' E 008°08'4 4.4
2014-Oct-26 03:33N 55°22' E 008°02'1212.0
2014-Oct-26 02:33N 55°22' E 007°41'1312.7
2014-Oct-26 01:33N 55°27' E 007°20'1312.6
2014-Oct-26 00:33N 55°37' E 007°05'1211.7
2014-Oct-25 23:31N 55°48' E 007°00'2711.8
2014-Oct-25 21:12N 56°15' E 007°11'811.7
2014-Oct-25 20:32N 56°22' E 007°16'1111.6
2014-Oct-25 19:33N 56°33' E 007°24'11611.0
2014-Oct-25 09:03N 57°50' E 010°03'612.5
2014-Oct-25 08:33N 57°50' E 010°15'1212.2
2014-Oct-25 07:33N 57°50' E 010°37'1211.7
2014-Oct-25 06:33N 57°44' E 010°56'1312.5
2014-Oct-25 05:33N 57°35' E 011°13'1212.3
2014-Oct-25 04:33N 57°26' E 011°28'1313.1
2014-Oct-25 03:32N 57°13' E 011°36'1313.2
2014-Oct-25 02:31N 57°01' E 011°44'1313.2
2014-Oct-25 01:33N 56°49' E 011°53'1211.4
2014-Oct-25 00:32N 56°38' E 011°47'  
2014-Oct-22 19:33N 54°31' E 011°28'1312.6
2014-Oct-22 18:33N 54°27' E 011°48'1212.3
2014-Oct-22 17:34N 54°27' E 012°09'5911.8
2014-Oct-22 12:33N 54°58' E 013°36'1313.0
2014-Oct-22 11:33N 55°03' E 013°58'1312.6
2014-Oct-22 10:33N 55°11' E 014°14'1313.4
2014-Oct-22 09:33N 55°22' E 014°29'1312.9
2014-Oct-22 08:33N 55°29' E 014°47'1312.8
2014-Oct-22 07:33N 55°35' E 015°07'  

Dump ship's entire track history